Morristown, NJ

3:14 AM EDT on September 25, 2017 (GMT -0400)
Morristown Municipal

Weather History for KMMU - March, 2013

Change the Weather History Date:

Tuesday, March 5, 2013

  Actual Average Record
Temperature  
Mean Temperature 39 °F -  
Max Temperature 48 °F 44 °F 73 °F (1974)
Min Temperature 30 °F 26 °F 4 °F (1948)
Degree Days  
Heating Degree Days 26    
Moisture  
Dew Point 23 °F    
Average Humidity 57    
Maximum Humidity 70    
Minimum Humidity 37    
Precipitation  
Precipitation 0.00 in - - ()
Sea Level Pressure  
Sea Level Pressure 29.97 in    
Wind  
Wind Speed 7 mph (NNW)    
Max Wind Speed 12 mph    
Max Gust Speed 23 mph    
Visibility 11 miles    
Events      
Averages and records for this station are not official NWS values.
T = Trace of Precipitation, MM = Missing Value Source: NWS Daily Summary

Daily Weather History Graph

Daily Weather History Graph

Search for Another Location

Airport or City:

Trip Planner

Search our weather history database for the weather conditions in past years. The results will help you decide how hot, cold, wet, or windy it might be!

Date:

Astronomy

Mar. 05, 2013 Rise Set
Actual Time 6:25 AM EST 5:53 PM EST
Civil Twilight 5:57 AM EST 6:21 PM EST
Nautical Twilight 5:26 AM EST 6:52 PM EST
Astronomical Twilight 4:54 AM EST 7:24 PM EST
Moon 1:36 AM EST (3/5) 11:28 AM EST (3/5)
Length of Visible Light 12h 23m
Length of Day
11h 28m
Last Quarter, 41% of the Moon is Illuminated
Mar 5
Last Quarter
Mar 11
New
Mar 19
First Quarter
Mar 27
Full
Apr 3
Last Quarter

Hourly Weather History & Observations

Time (EST) Temp. Windchill Dew Point Humidity Pressure Visibility Wind Dir Wind Speed Gust Speed Precip Events Conditions
12:15 AM 35.6 °F 28.6 °F 19.4 °F 52% 29.93 in 10.0 mi NW 9.2 mph 17.3 mph N/A   Scattered Clouds
12:35 AM 35.6 °F 27.5 °F 19.4 °F 52% 29.94 in 10.0 mi NW 11.5 mph 16.1 mph N/A   Mostly Cloudy
12:55 AM 35.6 °F 29.9 °F 19.4 °F 52% 29.94 in 10.0 mi NW 6.9 mph 18.4 mph N/A   Overcast
1:15 AM 35.6 °F 27.5 °F 21.2 °F 56% 29.94 in 10.0 mi WNW 11.5 mph 23.0 mph N/A   Overcast
1:35 AM 33.8 °F 25.8 °F 21.2 °F 60% 29.94 in 10.0 mi NW 10.4 mph 16.1 mph N/A   Mostly Cloudy
1:55 AM 33.8 °F 26.4 °F 21.2 °F 60% 29.94 in 10.0 mi NW 9.2 mph 16.1 mph N/A   Mostly Cloudy
2:15 AM 33.8 °F 27.0 °F 21.2 °F 60% 29.94 in 10.0 mi NW 8.1 mph - N/A   Mostly Cloudy
2:35 AM 33.8 °F 28.6 °F 21.2 °F 60% 29.94 in 10.0 mi NW 5.8 mph - N/A   Mostly Cloudy
2:55 AM 33.8 °F 27.7 °F 21.2 °F 60% 29.94 in 10.0 mi NW 6.9 mph - N/A   Scattered Clouds
3:15 AM 33.8 °F 26.4 °F 21.2 °F 60% 29.94 in 10.0 mi NW 9.2 mph 17.3 mph N/A   Clear
3:35 AM 33.8 °F 25.3 °F 21.2 °F 60% 29.94 in 10.0 mi NW 11.5 mph 16.1 mph N/A   Clear
3:55 AM 33.8 °F 28.6 °F 21.2 °F 60% 29.95 in 10.0 mi NNW 5.8 mph 18.4 mph N/A   Clear
4:15 AM 33.8 °F 28.6 °F 21.2 °F 60% 29.95 in 10.0 mi North 5.8 mph - N/A   Clear
4:35 AM 33.8 °F 29.6 °F 21.2 °F 60% 29.96 in 10.0 mi NW 4.6 mph - N/A   Clear
4:55 AM 33.8 °F 28.6 °F 21.2 °F 60% 29.96 in 10.0 mi NNW 5.8 mph - N/A   Clear
5:15 AM 33.8 °F 27.7 °F 21.2 °F 60% 29.97 in 10.0 mi NNW 6.9 mph - N/A   Clear
5:35 AM 33.8 °F 27.7 °F 21.2 °F 60% 29.98 in 10.0 mi NW 6.9 mph - N/A   Clear
6:45 AM 30.2 °F 24.3 °F 21.2 °F 69% 30.00 in 10.0 mi NNW 5.8 mph - N/A   Partly Cloudy
7:45 AM 33.8 °F 27.0 °F 21.2 °F 60% 30.00 in 10.0 mi North 8.1 mph - N/A   Clear
8:45 AM 35.6 °F 27.5 °F 21.2 °F 56% 30.03 in 10.0 mi NNE 11.5 mph 18.4 mph N/A   Clear
9:45 AM 37.4 °F 31.4 °F 21.2 °F 52% 30.03 in 10.0 mi North 8.1 mph 17.3 mph N/A   Clear
10:45 AM 37.4 °F 31.4 °F 23.0 °F 56% 30.01 in 10.0 mi West 8.1 mph - N/A   Clear
11:45 AM 42.8 °F 39.3 °F 23.0 °F 46% 30.00 in 10.0 mi North 5.8 mph - N/A   Clear
12:45 PM 44.6 °F 42.2 °F 23.0 °F 43% 29.98 in 20.0 mi NNW 4.6 mph - N/A   Partly Cloudy
1:45 PM 48.2 °F - 24.8 °F 40% 29.99 in 15.0 mi Calm Calm - N/A   Partly Cloudy
2:45 PM 48.2 °F - 23.0 °F 37% 29.98 in 10.0 mi ENE 4.6 mph - N/A   Partly Cloudy
3:45 PM 48.2 °F - 23.0 °F 37% 29.97 in 10.0 mi NNE 4.6 mph - N/A   Partly Cloudy
4:45 PM 46.4 °F 42.9 °F 23.0 °F 40% 29.97 in 20.0 mi East 6.9 mph - N/A   Partly Cloudy
5:45 PM 44.6 °F 43.1 °F 23.0 °F 43% 29.98 in 10.0 mi NE 3.5 mph - N/A   Partly Cloudy
6:45 PM 41.0 °F 35.2 °F 24.8 °F 53% 29.99 in 10.0 mi East 9.2 mph - N/A   Clear
7:45 PM 35.6 °F 31.7 °F 23.0 °F 60% 30.00 in 10.0 mi NE 4.6 mph - N/A   Clear
8:45 PM 35.6 °F 31.7 °F 24.8 °F 65% 30.00 in 10.0 mi NE 4.6 mph - N/A   Scattered Clouds
9:45 PM 35.6 °F - 24.8 °F 65% 30.01 in 10.0 mi Calm Calm - N/A   Mostly Cloudy
9:55 PM 37.4 °F - 26.6 °F 65% 30.00 in 10.0 mi Calm Calm - N/A   Mostly Cloudy
10:15 PM 37.4 °F - 26.6 °F 65% 30.00 in 10.0 mi Calm Calm - N/A   Overcast
10:35 PM 37.4 °F - 26.6 °F 65% 30.00 in 10.0 mi Calm Calm - N/A   Overcast
10:55 PM 37.4 °F - 28.4 °F 70% 29.99 in 10.0 mi Calm Calm - N/A   Overcast
11:15 PM 39.2 °F 35.9 °F 26.6 °F 61% 29.98 in 10.0 mi NE 4.6 mph - N/A   Overcast
11:35 PM 39.2 °F 35.9 °F 26.6 °F 61% 29.98 in 10.0 mi NE 4.6 mph - N/A   Overcast
11:55 PM 37.4 °F 34.9 °F 28.4 °F 70% 29.98 in 10.0 mi NNE 3.5 mph - N/A   Overcast